Weather History for Erzurum, Turkey

Change the Weather History Date:

Sunday, February 17, 2013

  Actual Average Record
Temperature  
Mean Temperature 26 °F -  
Max Temperature 36 °F 34 °F 39 °F (1997)
Min Temperature 16 °F 18 °F -18 °F (2011)
Degree Days  
Heating Degree Days 39    
Moisture  
Dew Point 22 °F    
Average Humidity 92    
Maximum Humidity 100    
Minimum Humidity 69    
Precipitation  
Precipitation 0.01 in 0.04 in - ()
Sea Level Pressure  
Sea Level Pressure 29.91 in    
Wind  
Wind Speed 2 mph ()    
Max Wind Speed 5 mph    
Max Gust Speed -    
Visibility 3.7 miles    
Events Snow    
Averages and records for this station are not official NWS values.
T = Trace of Precipitation, MM = Missing Value Source: Averaged Metar Reports

Daily Weather History Graph

Daily Weather History Graph

Search for Another Location

Airport:

Trip Planner

Search our weather history database for the weather conditions in past years. The results will help you decide how hot, cold, wet, or windy it might be!

Date:

Astronomy

Feb. 17, 2013 Rise Set
Actual Time 6:05 AM EET 4:53 PM EET
Civil Twilight 5:38 AM EET 5:21 PM EET
Nautical Twilight 5:06 AM EET 5:52 PM EET
Astronomical Twilight 4:35 AM EET 6:24 PM EET
Moon 9:44 AM EET (2/17) No Moon Set
Length of Visible Light 11h 43m
Length of Day
10h 47m
Waxing Crescent, 46% of the Moon is Illuminated
Feb 17
Waxing Crescent
Feb 17
First Quarter
Feb 25
Full
Mar 4
Last Quarter
Mar 11
New

Hourly Weather History & Observations

Time (EET) Temp. Windchill Dew Point Humidity Pressure Visibility Wind Dir Wind Speed Gust Speed Precip Events Conditions
12:20 AM 21.2 °F - 21.2 °F 100% 29.92 in 3.7 mi Variable 1.2 mph - N/A Snow Light Snow
12:50 AM 23.0 °F - 21.2 °F 93% 29.92 in 2.5 mi Variable 1.2 mph - N/A Snow Light Snow
1:20 AM 21.2 °F - 21.2 °F 100% 29.92 in 2.5 mi North 2.3 mph - N/A Snow Light Snow
1:50 AM 21.2 °F - 21.2 °F 100% 29.92 in 2.5 mi Calm Calm - N/A Snow Light Snow
2:00 AM 22 °F - 22 °F 100%  in 2 mi WNW 1.2 mph - - Snow Light Snow
2:20 AM 21.2 °F - 21.2 °F 100% 29.92 in 2.5 mi Calm Calm - N/A Snow Light Snow
2:50 AM 21.2 °F - 21.2 °F 100% 29.89 in 2.5 mi Variable 1.2 mph - N/A   Mostly Cloudy
3:20 AM 21.2 °F - 21.2 °F 100% 29.89 in 2.5 mi Calm Calm - N/A   Mostly Cloudy
3:50 AM 23.0 °F - 23.0 °F 100% 29.89 in 2.5 mi SSE 2.3 mph - N/A Snow Light Snow
4:20 AM 21.2 °F - 21.2 °F 100% 29.89 in 2.5 mi Variable 1.2 mph - N/A Snow Light Snow
4:50 AM 19.4 °F - 19.4 °F 100% 29.89 in 2.5 mi Variable 2.3 mph - N/A   Mostly Cloudy
5:20 AM 21.2 °F - 21.2 °F 100% 29.89 in 2.5 mi Variable 2.3 mph - N/A   Mostly Cloudy
5:50 AM 21.2 °F - 21.2 °F 100% 29.89 in - NW 2.3 mph - N/A Snow Light Snow
6:20 AM 21.2 °F 16.4 °F 21.2 °F 100% 29.89 in - ESE 3.5 mph - N/A Snow Light Snow
6:50 AM 21.2 °F - 21.2 °F 100% 29.92 in 2.5 mi Calm Calm - N/A   Mostly Cloudy
7:20 AM 21.2 °F - 21.2 °F 100% 29.92 in 2.5 mi Variable 1.2 mph - N/A Snow Light Snow
7:50 AM 24.8 °F - 23.0 °F 93% 29.92 in 2.5 mi Calm Calm - N/A Snow Light Snow
8:00 AM 25 °F - 25 °F 100%  in 2 mi Calm Calm - - Snow Light Snow
8:20 AM 26.6 °F - 23.0 °F 86% 29.92 in 2.5 mi Variable 1.2 mph - N/A Snow Light Snow
8:50 AM 24.8 °F - 23.0 °F 93% 29.92 in - West 2.3 mph - N/A   Mostly Cloudy
9:20 AM 24.8 °F - 23.0 °F 93% 29.92 in - Variable 2.3 mph - N/A   Mostly Cloudy
9:50 AM 32.0 °F - 23.0 °F 69% 29.92 in 3.7 mi Calm Calm - N/A   Mostly Cloudy
10:20 AM 28.4 °F 24.6 °F 24.8 °F 86% 29.92 in 3.7 mi WNW 3.5 mph - N/A   Mostly Cloudy
10:50 AM 26.6 °F 22.6 °F 23.0 °F 86% 29.92 in 3.7 mi NNW 3.5 mph - N/A   Mostly Cloudy
11:20 AM 28.4 °F - 23.0 °F 80% 29.92 in 3.7 mi Variable 2.3 mph - N/A   Mostly Cloudy
11:50 AM 28.4 °F - 23.0 °F 80% 29.92 in 4.3 mi Variable 2.3 mph - N/A   Mostly Cloudy
12:20 PM 30.2 °F - 24.8 °F 80% 29.92 in 4.3 mi Variable 2.3 mph - N/A   Mostly Cloudy
12:50 PM 28.4 °F 24.6 °F 24.8 °F 86% 29.92 in 4.3 mi East 3.5 mph - N/A   Mostly Cloudy
1:20 PM 28.4 °F - 24.8 °F 86% 29.89 in 4.3 mi Variable 2.3 mph - N/A   Mostly Cloudy
1:50 PM 30.2 °F - 24.8 °F 80% 29.89 in 4.3 mi Variable 2.3 mph - N/A   Mostly Cloudy
2:00 PM 29 °F - 24 °F 74%  in 4 mi ENE 2.3 mph - -   Mist
2:20 PM 30.2 °F 25.4 °F 24.8 °F 80% 29.89 in 4.3 mi NE 4.6 mph - N/A   Mostly Cloudy
2:50 PM 30.2 °F 26.7 °F 24.8 °F 80% 29.89 in 4.3 mi NE 3.5 mph - N/A   Mostly Cloudy
3:20 PM 28.4 °F 24.6 °F 24.8 °F 86% 29.89 in 5.0 mi NNE 3.5 mph - N/A   Scattered Clouds
3:50 PM 26.6 °F - 24.8 °F 93% 29.89 in 5.0 mi North 2.3 mph - N/A   Scattered Clouds
4:20 PM 26.6 °F - 23.0 °F 86% 29.89 in 5.0 mi North 1.2 mph - N/A   Scattered Clouds
4:50 PM 26.6 °F 22.6 °F 23.0 °F 86% 29.89 in 5.0 mi NW 3.5 mph - N/A   Mostly Cloudy
5:20 PM 24.8 °F - 23.0 °F 93% 29.89 in 5.0 mi Variable 2.3 mph - N/A   Mostly Cloudy
5:50 PM 24.8 °F - 23.0 °F 93% 29.89 in 5.6 mi Variable 1.2 mph - N/A   Mostly Cloudy
6:20 PM 23.0 °F 17.0 °F 19.4 °F 86% 29.89 in 5.0 mi West 4.6 mph - N/A   Mostly Cloudy
6:50 PM 23.0 °F 17.0 °F 21.2 °F 93% 29.89 in 5.0 mi West 4.6 mph - N/A   Mostly Cloudy
7:20 PM 24.8 °F 20.5 °F 21.2 °F 86% 29.92 in 5.0 mi NW 3.5 mph - N/A   Mostly Cloudy
7:50 PM 23.0 °F - 21.2 °F 93% 29.92 in 5.0 mi Calm Calm - N/A   Mostly Cloudy
8:00 PM 23 °F - 21 °F 91%  in 5 mi Calm Calm - -   Mist
8:20 PM 23.0 °F - 21.2 °F 93% 29.92 in 4.3 mi Calm Calm - N/A Snow Light Snow
8:50 PM 23.0 °F - 21.2 °F 93% 29.92 in 5.0 mi Variable 1.2 mph - N/A Snow Light Snow
9:20 PM 23.0 °F - 21.2 °F 93% 29.92 in 5.0 mi North 2.3 mph - N/A Snow Light Snow
9:50 PM 21.2 °F 14.9 °F 19.4 °F 93% 29.92 in 5.0 mi ENE 4.6 mph - N/A Snow Light Snow
10:20 PM 21.2 °F 14.9 °F 21.2 °F 100% 29.92 in 3.7 mi East 4.6 mph - N/A Snow Light Snow
10:50 PM 23.0 °F - 21.2 °F 93% 29.92 in 1.2 mi Variable 1.2 mph - N/A Snow Light Snow
11:20 PM 21.2 °F - 21.2 °F 100% 29.92 in 3.7 mi Variable 1.2 mph - N/A Snow Light Snow
11:50 PM 21.2 °F - 19.4 °F 93% 29.92 in 3.7 mi Variable 1.2 mph - N/A Snow Light Snow